POPACS 1

Last updated on Sat Apr 13 2024 01:03:32 GMT+0100 (British Summer Time)

1 39268U 13055D 24103.32810978 .00020127 00000+0 37714-3 0 9996 2 39268 80.9856 226.4885 0428216 303.6238 52.4794 14.86716849550734
UTC large
Height (km)
Speed (km/s)
/
Latitude / Longitude
Inclination (degrees)
Orbital Period (minutes)
Azimuth
Elevation
Range (km)
Doppler Factor

Next 0 passes for location: London (51.5072 / 0.1276)

Sorry there are no passes over London.